Flag for Belgium Weather past 2 weeks in Ghent, Belgium

Now
54 °F

Fog.


Feels Like: N/A
Forecast: 52 / 73 °F
Wind: N/A

Location: Munte


UV Index: 0 (Low)

Visibility: 2 mi


Pressure: 30.13 "Hg

Humidity: 92%

Dew point: 52 °F

Location of GhentLocation

Historic Weather in Ghent

°F

Ghent temperature yesterday

Maximum temperature yesterday: 67 °F (at 4:00 PM)
Minimum temperature yesterday: 47 °F (at 7:00 AM)
Average temperature yesterday: 56 °F

Past Weeks' High & Low Weather Summary

 TemperatureHumidityPressure
High70 °F (Apr 21, 2:00 PM)100% (Apr 11, 9:00 AM)30.44 "Hg (Apr 11, 9:00 AM)
Low35 °F (Apr 16, 7:00 AM)28% (Apr 17, 5:00 PM)29.59 "Hg (Apr 21, 4:00 PM)
Average52 °F71%30.07 "Hg
* Reported Apr 9 9:00 AM — Apr 24 9:00 AM, Ghent, Weather by CustomWeather, © 2014

Note: Actual official high and low records may vary slightly from our data, if they occured in-between our weather recording intervals... More about our weather records

Advertising

Historic Weather Conditions — Data for Previous 24 hours

 ConditionsComfort  
Time TempWeatherWind HumidityBarometerVisibility
9:00 AM
Apr 24
54 °FFog.N/A92%30.13 "Hg2 mi
8:00 AM53 °FOvercast.N/A94%30.12 "Hg1 mi
7:00 AM53 °FRain. Overcast.N/A91%30.12 "Hg2 mi
6:00 AM53 °FLight rain. Overcast.2 mph91%30.11 "Hg2 mi
5:00 AM53 °FFog.N/A90%30.10 "Hg2 mi
4:00 AM53 °FFog.N/A91%30.10 "Hg3 mi
3:00 AM53 °FFog.N/A89%30.10 "Hg3 mi
2:00 AM53 °FCool.N/A88%30.11 "Hg3 mi
1:00 AM53 °FCool.No wind86%30.11 "Hg4 mi
12:00 AM55 °FCool.N/A83%30.11 "Hg6 mi
11:00 PM
Apr 23
56 °FCool.2 mph78%30.11 "Hg7 mi
10:00 PM57 °FCool.2 mph73%30.11 "Hg11 mi
9:00 PM62 °FCool.2 mph61%30.10 "Hg12 mi
8:00 PM64 °FMild.N/A54%30.08 "Hg15 mi
7:00 PM67 °FMild.N/A48%30.08 "Hg19 mi
6:00 PM67 °FMild.N/A48%30.08 "Hg14 mi
5:00 PM67 °FPartly sunny.N/A49%30.08 "Hg17 mi
4:00 PM67 °FScattered clouds.N/A53%30.10 "Hg14 mi
3:00 PM66 °FScattered clouds.2 mph48%30.11 "Hg22 mi
2:00 PM65 °FScattered clouds.N/A57%30.11 "Hg10 mi
1:00 PM61 °FPassing clouds.N/A77%30.11 "Hg7 mi
12:00 PM55 °FPartly sunny.5 mph86%30.13 "Hg4 mi
11:00 AM52 °FFog.2 mph95%30.12 "Hg1 mi
10:00 AM52 °FFog.2 mph97%30.11 "Hg0 mi
Weather by CustomWeather, © 2014

See weather overview